Weather reports worldwide

Advertisment
Geneve-Cointrin, Switzerland (6700): temperature & dewpoint: 12.12.2017 00:00:00 - 18.12.2017 00:00:00 (CET)Geneve-Cointrin, Switzerland (6700): temperature 5cm: 12.12.2017 00:00:00 - 18.12.2017 00:00:00 (CET)Geneve-Cointrin, Switzerland (6700): wind speed & gusts: 12.12.2017 00:00:00 - 18.12.2017 00:00:00 (CET)Geneve-Cointrin, Switzerland (6700): wind direction: 12.12.2017 00:00:00 - 18.12.2017 00:00:00 (CET)Geneve-Cointrin, Switzerland (6700): reduced air pressure: 12.12.2017 00:00:00 - 18.12.2017 00:00:00 (CET)Geneve-Cointrin, Switzerland (6700): visibility: 12.12.2017 00:00:00 - 18.12.2017 00:00:00 (CET)Geneve-Cointrin, Switzerland (6700): sunshine duration: 12.12.2017 00:00:00 - 18.12.2017 00:00:00 (CET)Geneve-Cointrin, Switzerland (6700): precipitation: 12.12.2017 00:00:00 - 18.12.2017 00:00:00 (CET)
Date & Time tt [°C] td [°C] tt 5cm [°C] ff [km/h] ff [kn] fx [km/h] fx [kn] dd ppp [hPa] vv [km] sd [min] rr [mm]
18.12.2017 00:00:00 -2,5 -3,0 -4,2 2 1 8 4 W 1031,8 - 0 0,0
17.12.2017 23:00:00 -2,0 -3,8 -4,1 5 3 8 4 WNW 1031,6 - 0 0,0
17.12.2017 22:00:00 -1,9 -3,0 -4,4 3 2 6 4 W 1031,3 40 0 0,0
17.12.2017 21:00:00 -1,9 -2,6 -4,4 2 1 6 3 SSW 1030,9 - 0 0,0
17.12.2017 20:00:00 -0,7 -2,3 -3,3 4 2 6 3 WNW 1030,6 - 0 0,0
17.12.2017 19:00:00 -0,7 -2,5 -2,3 4 2 7 4 NW 1030,2 40 0 0,0
17.12.2017 18:00:00 0,3 -2,2 -3,1 3 2 6 3 SSW 1029,4 - 0 0,0
17.12.2017 17:00:00 1,4 -2,7 -1,3 3 1 8 4 W 1028,5 - 0 0,0
17.12.2017 16:00:00 2,8 -2,7 2,5 4 2 7 4 W 1027,2 40 0 0,0
17.12.2017 15:00:00 3,0 -3,5 3,1 4 2 9 5 WSW 1026,9 - 0 0,0
17.12.2017 14:00:00 3,1 -4,3 3,6 4 2 11 6 WSW 1026,9 - 0 0,0
17.12.2017 13:00:00 2,7 -3,6 3,7 4 2 11 6 WNW 1026,8 45 24 0,0
17.12.2017 12:00:00 2,6 -2,3 3,5 4 2 8 4 WSW 1027,2 - 1 0,0
17.12.2017 11:00:00 1,7 -2,8 2,1 2 1 11 6 W 1027,6 - 0 0,0
17.12.2017 10:00:00 0,7 -3,2 -0,3 1 1 5 3 NW 1027,0 30 0 0,0
17.12.2017 09:00:00 -0,6 -3,3 -2,2 3 2 9 5 SSE 1026,6 - 0 0,0
17.12.2017 08:00:00 -1,2 -3,6 -3,3 3 2 9 5 NW 1026,2 - 0 0,0
17.12.2017 07:00:00 -2,1 -4,2 -4,6 4 2 11 6 WSW 1026,3 40 0 0,0
17.12.2017 06:00:00 -1,5 -4,4 -4,9 2 1 8 5 SW 1026,1 - 0 0,0
17.12.2017 05:00:00 -1,4 -4,1 -3,5 8 4 12 7 WNW 1025,7 - 0 0,0
17.12.2017 04:00:00 -0,5 -4,2 -3,7 3 1 22 12 ENE 1025,3 - 0 0,0
17.12.2017 03:00:00 2,3 -5,7 -1,7 7 4 18 10 NNW 1024,1 - 0 0,0
17.12.2017 02:00:00 1,7 -2,6 -0,8 8 4 16 8 WNW 1023,6 - 0 0,0
17.12.2017 01:00:00 1,5 -0,2 -0,2 5 3 15 8 W 1023,3 - 0 0,0
17.12.2017 00:00:00 1,6 0,0 0,8 4 2 13 7 WSW 1023,2 - 0 0,0
16.12.2017 23:00:00 1,0 -0,1 0,2 4 2 10 6 WSW 1022,7 - 0 0,0
16.12.2017 22:00:00 1,4 -0,4 -0,6 5 3 10 6 SSW 1022,4 30 0 0,0
16.12.2017 21:00:00 2,0 -0,2 -0,1 1 1 12 6 WNW 1021,8 - 0 0,0
16.12.2017 20:00:00 2,7 -0,2 1,4 5 3 9 5 SW 1021,1 - 0 0,0
16.12.2017 19:00:00 2,5 -1,0 1,1 4 2 7 4 W 1020,1 25 0 0,0
16.12.2017 18:00:00 3,3 -2,4 1,8 5 3 11 6 NNW 1019,0 - 0 0,0
16.12.2017 17:00:00 2,8 -1,5 -0,3 4 2 8 5 N 1018,5 - 25 0,0
16.12.2017 16:00:00 4,3 -1,9 4,9 5 3 13 7 SW 1017,2 75 40 0,0
16.12.2017 15:00:00 4,3 -1,1 4,8 7 4 18 10 SSW 1016,5 - 0 0,0
16.12.2017 14:00:00 4,3 0,1 4,8 12 6 21 11 S 1016,1 - 3 0,0
16.12.2017 13:00:00 3,8 -0,5 4,8 10 6 24 13 SW 1015,9 25 0 0,0
16.12.2017 12:00:00 4,0 -0,3 4,1 13 7 18 10 SW 1015,0 - 7 0,0
16.12.2017 11:00:00 4,5 -0,3 8,6 11 6 18 10 SSW 1014,1 - 24 0,0
16.12.2017 10:00:00 2,7 0,5 2,4 6 3 16 9 SSW 1013,4 40 0 0,0
16.12.2017 09:00:00 2,3 -0,1 1,2 10 6 16 9 SSW 1012,4 - 0 0,0
16.12.2017 08:00:00 2,4 -0,2 0,9 7 4 19 11 W 1011,1 - 0 0,0
16.12.2017 07:00:00 2,0 0,0 0,7 7 4 23 12 SW 1009,9 15 0 0,0
16.12.2017 06:00:00 2,0 -0,1 0,3 13 7 22 12 SSW 1008,8 - 0 0,0
16.12.2017 05:00:00 2,0 0,1 0,6 15 8 25 14 SSW 1007,9 - 0 0,0
16.12.2017 04:00:00 2,4 0,6 1,4 9 5 21 12 SW 1006,9 - 0 0,0
16.12.2017 03:00:00 2,4 1,0 1,2 14 8 22 12 SSW 1006,2 - 0 0,0
16.12.2017 02:00:00 2,0 1,0 0,9 9 5 16 9 WSW 1005,2 - 0 0,0
16.12.2017 01:00:00 1,5 0,9 1,1 5 3 16 8 WNW 1005,2 - 0 0,4
16.12.2017 00:00:00 1,6 0,9 0,4 6 3 33 18 SSE 1004,5 - 0 0,3
15.12.2017 23:00:00 2,2 1,1 1,6 13 7 25 13 WSW 1004,6 - 0 0,6
15.12.2017 22:00:00 3,7 0,6 2,5 11 6 43 23 SW 1003,4 25 0 0,0
15.12.2017 21:00:00 4,6 -0,8 2,3 7 4 28 15 W 1002,8 - 0 0,0
15.12.2017 20:00:00 4,2 0,3 3,4 10 5 20 11 WSW 1002,8 - 0 0,0
15.12.2017 19:00:00 4,3 0,1 2,5 11 6 26 14 W 1002,3 30 0 0,0
15.12.2017 18:00:00 4,8 0,2 3,6 11 6 19 11 WSW 1002,5 - 0 0,0
15.12.2017 17:00:00 5,2 0,0 4,2 10 5 29 15 WSW 1002,8 - 0 0,0
15.12.2017 16:00:00 5,5 -0,7 4,5 16 8 34 18 S 1003,0 35 0 0,0
15.12.2017 15:00:00 5,8 0,3 4,3 17 9 33 18 S 1003,2 - 0 0,1
15.12.2017 14:00:00 6,1 0,1 6,2 23 13 34 18 SSW 1003,6 - 17 0,0
15.12.2017 13:00:00 6,3 0,6 8,3 24 13 39 21 SSW 1004,1 30 57 0,0
15.12.2017 12:00:00 6,0 0,1 5,7 21 11 36 19 SSW 1004,7 - 46 0,0
15.12.2017 11:00:00 4,9 0,7 5,0 15 8 28 15 SW 1005,5 - 4 0,0
15.12.2017 10:00:00 3,6 1,4 3,2 9 5 21 11 WSW 1005,2 18 0 0,0
15.12.2017 09:00:00 3,2 0,9 2,1 17 9 29 16 WSW 1004,6 - 0 0,0
15.12.2017 08:00:00 2,7 0,7 0,3 13 7 23 12 SSW 1004,5 - 0 0,0
15.12.2017 07:00:00 3,0 0,7 1,0 16 9 29 16 SSW 1004,7 16 0 0,0
15.12.2017 06:00:00 3,3 0,7 1,7 22 12 37 20 SSW 1004,3 - 0 0,0
15.12.2017 05:00:00 3,3 0,9 2,0 23 13 35 19 SSW 1004,3 - 0 0,1
15.12.2017 04:00:00 3,6 1,0 2,3 22 12 45 24 S 1004,2 - 0 0,0
15.12.2017 03:00:00 4,5 0,0 2,3 31 17 49 26 S 1002,7 - 0 0,0
15.12.2017 02:00:00 4,4 0,7 2,7 31 17 63 34 SSW 1002,6 - 0 0,6
15.12.2017 01:00:00 5,3 1,7 4,4 30 16 80 43 W 1001,0 - 0 0,8
15.12.2017 00:00:00 7,5 4,0 5,4 46 25 75 40 SSW 999,4 - 0 0,8
14.12.2017 23:00:00 9,8 1,5 7,9 45 25 75 40 SW 999,4 - 0 0,0
14.12.2017 22:00:00 8,8 3,3 6,3 49 27 78 42 SSW 1000,2 14 0 0,1
14.12.2017 21:00:00 8,9 3,7 5,8 50 27 77 42 SSW 1000,0 - 0 0,5
14.12.2017 20:00:00 9,2 2,6 5,7 55 30 83 45 SSW 1000,4 - 0 0,2
14.12.2017 19:00:00 8,3 3,7 5,7 53 28 74 40 SSW 1001,6 10 0 1,2
14.12.2017 18:00:00 8,3 3,7 5,7 31 17 49 26 SW 1002,0 - 0 0,1
14.12.2017 17:00:00 7,9 4,1 5,7 34 18 51 28 SSW 1003,6 - 0 0,6
14.12.2017 16:00:00 7,5 5,0 6,0 29 16 49 26 SSW 1004,7 15 0 0,2
14.12.2017 15:00:00 7,6 5,2 6,1 12 7 25 13 SW 1005,5 - 0 0,1
14.12.2017 14:00:00 5,7 4,2 5,6 5 3 16 9 WSW 1007,2 - 0 0,4
14.12.2017 13:00:00 5,7 3,9 5,1 8 4 23 12 W 1008,9 8 0 0,6
14.12.2017 12:00:00 5,7 3,7 4,9 11 6 30 16 WSW 1010,0 - 0 1,7
14.12.2017 11:00:00 6,3 4,1 5,3 21 11 38 21 SW 1010,4 - 0 0,5
14.12.2017 10:00:00 6,0 4,1 5,1 16 8 28 15 WSW 1010,6 9 0 1,1
14.12.2017 09:00:00 6,6 5,7 5,6 12 6 31 17 W 1010,4 - 0 1,1
14.12.2017 08:00:00 6,9 4,6 5,2 16 9 39 21 SW 1009,6 - 0 0,7
14.12.2017 07:00:00 7,1 4,3 5,2 20 11 50 27 SSW 1009,9 20 0 0,0
14.12.2017 06:00:00 7,1 4,8 5,3 23 13 38 20 SSW 1010,0 - 0 1,1
14.12.2017 05:00:00 6,6 5,3 5,3 14 8 33 18 WSW 1009,1 - 0 1,2
14.12.2017 04:00:00 6,8 4,9 5,3 21 11 48 26 SW 1009,3 - 0 0,2
14.12.2017 03:00:00 6,6 4,2 5,0 36 20 54 29 SW 1009,1 - 0 0,2
14.12.2017 02:00:00 6,0 4,2 4,7 21 12 56 30 WSW 1009,5 - 0 0,4
14.12.2017 01:00:00 6,1 3,6 4,4 43 23 62 34 SW 1009,5 - 0 0,0
14.12.2017 00:00:00 5,6 3,1 4,0 41 22 57 31 SW 1010,1 - 0 0,0
13.12.2017 23:00:00 4,8 3,3 3,5 32 17 55 30 SW 1010,1 - 0 0,3
13.12.2017 22:00:00 3,6 2,4 2,5 18 10 37 20 WSW 1010,9 5 0 1,4
13.12.2017 21:00:00 2,8 1,8 2,0 18 10 34 18 WSW 1011,8 - 0 1,8
13.12.2017 20:00:00 2,5 1,2 1,6 16 9 35 19 WSW 1012,7 - 0 0,3
13.12.2017 19:00:00 2,2 0,9 1,4 16 9 34 19 WSW 1014,3 20 0 0,0
13.12.2017 18:00:00 2,1 0,5 0,9 21 11 39 21 W 1015,6 - 0 0,0
13.12.2017 17:00:00 1,3 0,0 0,0 21 12 40 21 WSW 1016,6 - 0 0,2
13.12.2017 16:00:00 1,1 -0,3 0,1 9 5 36 19 WSW 1017,3 4,0 0 0,2
13.12.2017 15:00:00 2,6 -2,1 1,9 15 8 30 16 WSW 1017,1 - 0 0,0
13.12.2017 14:00:00 2,4 -2,3 2,0 15 8 25 13 WSW 1017,3 - 0 0,0
13.12.2017 13:00:00 2,2 -2,4 2,8 14 8 29 15 SW 1018,3 40 15 0,0
13.12.2017 12:00:00 1,9 -1,7 1,6 10 5 19 10 SW 1019,8 - 0 0,0
13.12.2017 11:00:00 1,0 -1,9 1,0 13 7 18 10 SW 1021,3 - 45 0,0
13.12.2017 10:00:00 0,0 -1,6 -0,2 5 3 13 7 WNW 1021,8 40 60 0,0
13.12.2017 09:00:00 -1,0 -2,7 -3,6 12 6 16 8 SW 1022,2 - 3 0,0
13.12.2017 08:00:00 -2,3 -3,7 -5,2 7 4 11 6 SW 1022,7 - 0 0,0
13.12.2017 07:00:00 -3,6 -4,2 -5,5 5 3 9 5 WNW 1023,1 9 0 0,0
13.12.2017 06:00:00 -3,7 -4,6 -6,3 6 3 9 5 WSW 1023,5 - 0 0,0
13.12.2017 05:00:00 -3,7 -5,0 -6,8 5 3 9 5 SW 1023,5 - 0 0,0
13.12.2017 04:00:00 -4,1 -4,9 -5,8 5 3 6 3 WSW 1023,9 - 0 0,0
13.12.2017 03:00:00 -3,5 -3,7 -6,4 2 1 9 5 WSW 1023,6 - 0 0,0
13.12.2017 02:00:00 -3,1 -3,4 -6,3 2 1 11 6 W 1023,3 - 0 0,0
13.12.2017 01:00:00 -2,5 -3,1 -4,5 6 3 11 6 W 1023,0 - 0 0,0
13.12.2017 00:00:00 -2,4 -2,9 -4,3 4 2 8 4 SSW 1022,6 - 0 0,0
12.12.2017 23:00:00 -1,9 -2,4 -4,3 5 3 8 4 NW 1022,4 - 0 0,0
12.12.2017 22:00:00 -0,7 -1,5 -2,6 3 2 9 5 SW 1022,0 20 0 0,0
12.12.2017 21:00:00 -0,3 -1,4 -2,3 4 2 6 3 W 1021,6 - 0 0,0
12.12.2017 20:00:00 -0,4 -1,3 -3,2 3 2 6 4 W 1021,2 - 0 0,0
12.12.2017 19:00:00 1,2 -0,9 -1,3 4 2 9 5 WNW 1020,3 30 0 0,0
12.12.2017 18:00:00 2,4 -0,1 -1,0 7 4 23 12 SW 1018,8 - 0 0,0
12.12.2017 17:00:00 3,6 0,0 2,6 11 6 18 10 S 1017,6 - 15 0,0
12.12.2017 16:00:00 4,4 1,0 6,8 3 2 6 3 N 1016,7 30 13 0,0
12.12.2017 15:00:00 4,3 1,1 4,8 3 1 10 6 WSW 1016,0 - 0 0,0
12.12.2017 14:00:00 4,0 1,2 5,1 4 2 12 6 WSW 1015,5 - 0 0,0
12.12.2017 13:00:00 3,8 1,5 4,4 8 4 14 8 SW 1015,1 15 0 0,0
12.12.2017 12:00:00 3,1 1,1 3,8 5 3 8 4 WNW 1014,8 - 0 0,0
12.12.2017 11:00:00 2,4 1,3 3,5 4 2 8 5 W 1014,7 - 0 0,0
12.12.2017 10:00:00 1,8 1,0 1,8 4 2 8 4 WSW 1013,8 8 0 0,0
12.12.2017 09:00:00 1,2 0,8 0,7 4 2 13 7 SE 1012,5 - 0 0,6
12.12.2017 08:00:00 2,2 0,4 1,4 7 4 13 7 W 1011,3 - 0 0,2
12.12.2017 07:00:00 3,0 0,5 1,3 5 3 14 8 W 1009,1 17 0 0,1
12.12.2017 06:00:00 2,7 0,5 1,6 9 5 18 10 W 1007,8 - 0 0,0
12.12.2017 05:00:00 3,0 1,1 1,8 8 4 15 8 S 1005,8 - 0 0,0
12.12.2017 04:00:00 3,5 2,4 2,5 2 1 11 6 W 1004,5 - 0 0,1
12.12.2017 03:00:00 4,1 3,1 3,4 5 3 27 14 W 1002,9 - 0 0,2
12.12.2017 02:00:00 4,6 2,9 3,5 17 9 38 21 SSW 1000,5 - 0 0,8
12.12.2017 01:00:00 5,9 3,1 3,9 23 12 36 20 SW 998,8 - 0 0,0
12.12.2017 00:00:00 5,6 3,1 3,8 24 13 34 18 SW 997,9 - 0 0,0

tt = temperature
td = dewpoint
tt 5cm = temperature 5cm
ff = wind speed
fx = gusts
dd = wind direction
ppp = reduced air pressure
vv = visibility
sd = sunshine duration
rr = precipitation

Next stations